BREEZE-KM DEB, 41722

Orbit data source: Space-Track

BREEZE-KM DEB, 41722 is space debris in LEO originally from a launch on Tue, 31 Mar 2015 UTC launched from the Plesetsk Missile And Space Complex (PKMTR). Debris objects in space refer to the collection of defunct objects orbiting the Earth. Examples of debris include non-operational satellites, rocket bodies, and fragments generated from explosions, collisions, or faulty payload assembly.

Loading next visibility...
Identifier
41722, 2015-020K
Orbit
LEO
Country
Flag of CISCIS
Related business
Manufacturer
Khrunichev
Mission
Spacecraft
Bus & Motor
Unknown
Mass
Unknown
Launch date (UTC)
2015-03-31 (11 years ago)
Launch vehicle
Unknown
Launch site
Plesetsk Missile And Space Complex (PKMTR)
Object type
Payload
Rocket body
Debris
Shape & HBR
Unknown shape, 0.1 m
Radar Cross Section
Medium (>0.1 m² and <1 m²)

Expand to show TLE details & history
Last TLE update: 7 hours ago

TLE from 7 hours ago
0 BREEZE-KM DEB
1 41722U 15020K   26174.91086839  .00000022  00000-0  51329-4 0  9996
2 41722  82.4896 252.4167 0179397 195.5512 164.0030 12.70537557492658
Epoch: 2026-06-23T21:51Z
TLE epoch observation values (Epoch: 2026-06-23T21:51:39.028Z)
Latitude
-0.00004°
Longitude
12.42843°
Altitude
1,516.484 km
Speed
7.045 km/s
True Right ascension
16h 49m 40s
True Declination
0° 00' 00"
Sunlit
Object was in full shadow at epoch
Visualization orbit readout
Latitude
Unknown
Longitude
Unknown
Altitude
Unknown
Speed
Unknown
Apparent Right ascension
Unknown
Apparent Declination
Unknown
Sunlit
N/A
Visualization observer readout
Local Sidereal Time
15:35:52
Azimuth
Unknown
Elevation
Unknown
Doppler factor
Unknown
Orbital elements
Apogee altitude
1,516.188 km
Perigee altitude
1,237.936 km
Semi-major axis
7,755.199 km
Eccentricity
0.01794
Inclination
82.4896°
RAAN
252.4167°
Arg. of periapsis
195.5512°
True anomaly
164.55756°
Mean anomaly
164.003°
Eccentric anomaly
164.28146°
Mean motion
3.178 °/min
Orbital period
113.28 mins
BSTAR
0.000051329
Loading maneuver chart data...
Computing Atmospheric mass density...
Loading historical data...
Loading historical data...
Loading historical data...
Loading historical data...
Loading historical data...
Loading historical data...
Loading historical data...

Documentation

Showing up to 5 results
|